• MPC Preparation (Info)

  • MPEC 2010-W38 : 2010 WF1

    The following Minor Planet Electronic Circular may be linked-to from your own Web pages, but must not otherwise be redistributed electronically.

    A form allowing access to any MPEC is at the bottom of this page.


    Read MPEC 2010-W37 Read MPEC 2010-W39


    M.P.E.C. 2010-W38                                Issued 2010 Nov. 27, 15:21 UT
    
         The Minor Planet Electronic Circulars contain information on unusual
             minor planets and routine data on comets.  They are published
       on behalf of Commission 20 of the International Astronomical Union by the
              Minor Planet Center, Smithsonian Astrophysical Observatory,
                              Cambridge, MA 02138, U.S.A.
    
                 Prepared using the Tamkin Foundation Computer Network
    
                                  MPC@CFA.HARVARD.EDU
           URL https://www.minorplanetcenter.org/iau/mpc.html  ISSN 1523-6714
    
                                       2010 WF1
    
    Observations:
         K10W01F* C2010 11 27.24218 03 26 39.08 +19 07 10.6          20.4 VrEW038G96
         K10W01F  C2010 11 27.24964 03 26 39.55 +19 05 45.7          20.3 VrEW038G96
         K10W01F  C2010 11 27.25711 03 26 40.05 +19 04 20.2          20.6 VrEW038G96
         K10W01F  C2010 11 27.26446 03 26 40.56 +19 02 56.4          20.3 VrEW038G96
         K10W01F  C2010 11 27.30213 03 26 43.08 +18 55 44.5          20.4 VrEW038G96
         K10W01F  C2010 11 27.30468 03 26 43.22 +18 55 15.4          19.9 VrEW038G96
         K10W01F  C2010 11 27.30719 03 26 43.44 +18 54 47.2          20.2 VrEW038G96
         K10W01F  C2010 11 27.30971 03 26 43.58 +18 54 18.0          20.5 VrEW038G96
    
    Observer details:
    G96 Mt. Lemmon Survey.  Observer R. A. Kowalski.  Measurers J. D. Ahern,
        E. C. Beshore, A. Boattini, G. J. Garradd, A. R. Gibbs, A. D. Grauer,
        R. E. Hill, R. A. Kowalski, S. M. Larson, R. H. McNaught.  1.5-m reflector
        + CCD.
    
    Orbital elements:
    2010 WF1                                                 Earth MOID = 0.0105 AU
    Epoch 2010 Nov. 20.0 TT = JDT 2455520.5                 MPC
    M 333.57615              (2000.0)            P               Q
    n   0.48022557     Peri.  245.91524     -0.64240984     -0.75978896
    a   1.6150000      Node   244.43821     +0.73726249     -0.57704780
    e   0.4903688      Incl.    6.37400     +0.20917369     -0.29956063
    P   2.05           H   26.8           G   0.15
    From 8 observations 2010 Nov. 27.  E-assumed.
    
    Ephemeris:
    2010 WF1                 a,e,i = 1.62, 0.49, 6                   q = 0.8231
    Date    TT    R. A. (2000) Decl.     Delta      r     Elong.  Phase     V
    2010 11 20    03 18.57   +28 36.6    0.0876   1.074   169.7     9.5    22.3
    2010 11 21    03 19.04   +28 02.0    0.0804   1.067   169.9     9.3    22.1
    2010 11 22    03 19.63   +27 20.3    0.0732   1.060   170.1     9.2    21.9
    2010 11 23    03 20.36   +26 29.1    0.0661   1.053   170.2     9.1    21.6
    2010 11 24    03 21.27   +25 25.3    0.0590   1.046   170.3     9.1    21.4
    2010 11 25    03 22.44   +24 03.9    0.0520   1.039   170.3     9.2    21.1
    2010 11 26    03 23.96   +22 17.2    0.0451   1.031   170.2     9.4    20.8
    2010 11 27    03 26.01   +19 51.6    0.0382   1.024   169.6    10.0    20.4
    2010 11 28    03 28.86   +16 23.2    0.0315   1.018   168.2    11.4    20.0
    2010 11 29    03 33.08   +11 03.8    0.0250   1.011   165.0    14.6    19.6
    2010 11 30    03 39.88   +02 08.4    0.0188   1.004   157.9    21.7    19.2
    2010 12 01    03 52.55   -14 23.7    0.0136   0.997   142.9    36.6    18.9
    2010 12 02    04 23.88   -44 21.5    0.0107   0.990   113.7    65.7    19.2
    2010 12 03    07 00.03   -76 07.9    0.0119   0.984    79.4   100.0    20.8
    2010 12 04    13 11.11   -72 52.3    0.0163   0.977    58.2   121.0    22.7
    2010 12 05    14 16.22   -62 40.5    0.0221   0.971    47.5   131.6    24.3
    
    Timothy B. Spahr             (C) Copyright 2010 MPC           M.P.E.C. 2010-W38
    

    Read MPEC 2010-W37 Read MPEC 2010-W39


    MPEC number:

    Enter an MPEC number in one of the following forms:

    • 1997-B01 (the full form)
    • J97B01 (the packed version of the full form)
    • B01 (the abbreviated form)